Content
SEND FEEDBACK

Daily
Averages
Monthly
Summary
United States of America

HERMOSA, SOUTH DAKOTA


Home > North America > United States > South Dakota
Elevation: 3300 feet     Latitude: 43 50N     Longitude: 103 11W

WEATHER
 
SELECT A DAY
Number of Records: 203,292;   Date Range: 1/1/95 - 10/21/14
 
SHARE

PRINT THIS DATA

[ ← Previous Day ]
WEATHER ALMANAC - MAY 1, 2013
[ Next Day → ]
[ °C ]   °F
Weather ElementAverageHighLow
Temperature37.5 °F48.9 °F (2:52 pm)28 °F (11:52 pm)
Dewpoint16.5 °F19.9 °F (2:52 am)10 °F (6:52 pm)
Humidity45 %64 % (6:52 am)22 % (5:52 pm)
Barometer30.50 in30.67 in (9:52 pm)30.22 in (1:52 am)
Wind Speed11.7 mph25.3 mph (1:52 am)
Wind Gust25.3 mph (12:52 pm)
Weather ElementAverage
Visibility10 mi
Wind DirectionSSW (208.3 °)

Weather ElementTotal
Precipitation---
Heating Degree Days26.6 (Base 65)
Averaged from 23 records on May 1, 2013
WEATHER CONDITIONS BREAKOUT
WIND DIRECTION BREAKOUT
WEATHER BY HOUR - MAY 1, 2013
[ °C ]   °F
Local TimeTemperatureDewpointHumidityBarometerVisibilityWind DirectionWind SpeedGust SpeedPrecipitationEventsConditions
1:52 AM32.0 °F19.0 °F59 %30.22 in10.0 miNNW (340°)25.3 mphOvercast
2:52 AM32.0 °F19.9 °F61 %30.27 in10.0 miNorth (350°)11.5 mphOvercast
3:52 AM32.0 °F19.9 °F61 %30.34 in10.0 miNorth (350°)10.4 mphOvercast
4:52 AM32.0 °F19.0 °F59 %30.38 in10.0 miNorth (350°)11.5 mphOvercast
5:52 AM30.9 °F18.0 °F59 %30.41 in10.0 miNorth (360°)10.4 mphScattered Clouds
6:52 AM30.9 °F19.9 °F64 %30.45 in10.0 miNorth (360°)6.9 mphMostly Cloudy
7:52 AM34.0 °F18.0 °F52 %30.47 in10.0 miNNE (20°)12.7 mphClear
8:52 AM34.0 °F18.0 °F52 %30.49 in10.0 miNE (40°)12.7 mphScattered Clouds
9:52 AM37.0 °F19.0 °F48 %30.51 in10.0 miNorth (360°)10.4 mphClear
10:52 AM39.9 °F19.0 °F43 %30.52 in10.0 miNNW (340°)13.8 mph19.6 mphPartly Cloudy
11:52 AM42.1 °F18.0 °F38 %30.51 in10.0 miNorth (350°)11.5 mph20.7 mphClear
12:52 PM45.0 °F19.0 °F36 %30.51 in10.0 miNorth (350°)17.3 mph25.3 mphClear
1:52 PM46.9 °F17.1 °F30 %30.51 in10.0 miNorth (10°)11.5 mph25.3 mphClear
2:52 PM48.9 °F17.1 °F28 %30.51 in10.0 miNorth (360°)13.8 mph20.7 mphClear
3:52 PM48.0 °F16.0 °F28 %30.53 in10.0 miNNE (20°)13.8 mph18.4 mphClear
4:52 PM48.9 °F15.1 °F26 %30.53 in10.0 miNorth (360°)13.8 mph20.7 mphPartly Cloudy
5:52 PM48.0 °F10.9 °F22 %30.55 in10.0 miNNE (20°)12.7 mph19.6 mphPartly Cloudy
6:52 PM46.0 °F10.0 °F23 %30.56 in10.0 miNE (40°)13.8 mphClear
7:52 PM37.0 °F12.9 °F37 %30.61 in10.0 miNorth (10°)6.9 mphClear
8:52 PM30.9 °F12.9 °F47 %30.65 in10.0 miNNE (30°)6.9 mphClear
9:52 PM28.9 °F14.0 °F54 %30.67 in10.0 miNE (40°)6.9 mphClear
10:52 PM28.9 °F12.9 °F51 %30.66 in10.0 miNNE (20°)6.9 mphClear
11:52 PM28.0 °F14.0 °F56 %30.67 in10.0 miNW (310°)6.9 mphClear
Hourly data recorded from KRAP, located miles away from Hermosa, South Dakota







STORIES FROM OUR PARTNERS